User: anonymous   Login
Location: Budapest
(47.4979°N, 19.0402°E)
Time: 01:34:29
(UTC+01:00)
Language:

Vanguard 3 - Orbit

View from above orbital plane
View from above orbital plane
View from above satellite
View from above satellite

Ground track
Ground track

The orbit data is extracted from the following two-line orbital elements,

1 00020U 59007A   18052.17739067  .00000328  00000-0  14077-3 0  9994
2 00020  33.3444 320.1658 1667694  92.7073 286.4642 11.55535255132608
Epoch (UTC): 21 February 2018 04:15:26
Eccentricity: 0.1667694
inclination: 33.3444°
perigee height: 508 km
apogee height: 3264 km
right ascension of ascending node: 320.1658°
argument of perigee: 92.7073°
revolutions per day: 11.55535255
mean anomaly at epoch: 286.4642°
orbit number at epoch: 13260

The dashed part of the orbit path shows where the satellite is in the earth's shadow,  

DLR